Home > Time Zones > World Clock > Weather > Iran > Gorgan > Past weeks

Flag for Iran Weather past 2 weeks in Gorgan, Iran

Now
39 °F

Clear.


Feels Like: 39 °F
Forecast: 45 / 66 °F
Wind: No wind

Location: Gorgan Airport

Current Time: Dec 18, 2014 at 11:20:12 PM

Latest Report: Dec 18, 2014 at 10:00 PM


Visibility: 10 mi

Pressure: 30.12 "Hg

Humidity: 100%

Dew point: 39 °F

Location of GorganLocation

Historic Weather in Gorgan — Graph

°F

Gorgan temperature yesterday

Maximum temperature yesterday: 50 °F (at 12:30 AM)
Minimum temperature yesterday: 46 °F (at 3:30 AM)
Average temperature yesterday: 47 °F

Past Weeks' High & Low Weather Summary

 TemperatureHumidityPressure
High68 °F (Dec 12, 1:30 PM)100% (Dec 5, 2:30 AM)30.74 "Hg (Dec 5, 2:30 AM)
Low28 °F (Dec 5, 5:30 AM)43% (Dec 12, 2:30 PM)30.07 "Hg (Dec 13, 12:30 PM)
Average47 °F83%30.36 "Hg
* Reported Dec 3 9:30 PM — Dec 18 10:00 PM, Gorgan, Weather by CustomWeather, © 2014

Note: Actual official high and low records may vary slightly from our data, if they occured in-between our weather recording intervals... More about our weather records

Advertising

Gorgan weather history for previous 24 hours

 ConditionsComfort  
Time TempWeatherWind HumidityBarometerVisibility
10:00 PM
Dec 18
39 °FClear.No wind100%30.12 "Hg10 mi
9:30 PM41 °FClear.No wind93%30.12 "Hg10 mi
8:30 PM41 °FClear.No wind93%30.12 "Hg10 mi
7:30 PM41 °FClear.No wind100%30.15 "Hg10 mi
6:30 PM46 °FClear.5 mph93%30.12 "Hg10 mi
5:30 PM48 °FClear.5 mph87%30.12 "Hg10 mi
4:30 PM52 °FSunny.7 mph82%30.12 "Hg10 mi
3:30 PM55 °FSunny.14 mph67%30.15 "Hg10 mi
2:30 PM55 °FSunny.14 mph67%30.15 "Hg10 mi
1:30 PM55 °FSunny.18 mph63%30.18 "Hg10 mi
12:30 PM55 °FSunny.18 mph67%30.21 "Hg10 mi
11:30 AM55 °FSunny.16 mph63%30.24 "Hg10 mi
10:30 AM54 °FSunny.9 mph72%30.30 "Hg10 mi
9:30 AM48 °FSunny.7 mph82%30.30 "Hg10 mi
8:30 AM43 °FSunny.7 mph93%30.30 "Hg10 mi
7:30 AM39 °FSunny.7 mph93%30.30 "Hg10 mi
6:30 AM39 °FClear.7 mph93%30.30 "Hg10 mi
5:30 AM41 °FClear.7 mph93%30.30 "Hg10 mi
4:30 AM43 °FClear.No wind87%30.33 "Hg10 mi
3:30 AM45 °FPassing clouds.No wind93%30.36 "HgN/A
2:30 AM43 °FPassing clouds.No wind93%30.39 "HgN/A
1:30 AM45 °FPassing clouds.3 mph93%30.39 "Hg4 mi
12:30 AM45 °FFog.7 mph100%30.39 "Hg2 mi
11:30 PM
Dec 17
46 °FFog.7 mph100%30.39 "Hg2 mi
Weather by CustomWeather, © 2014

See weather overviewHow to use our weather pages